Terminal Aerodrome Forecast
Issued by NWS

Current Version | Previous Version | Text Only | Print | Product List | Glossary Off
Versions: 1 2 3 4 5 6 7 8 9 10 11 12 13

438
FTUS41 KILN 231256 AAA
TAFLCK
TAF AMD
KLCK 231256Z 2313/2412 36008KT P6SM SCT025
      TEMPO 2313/2315 BKN018
     FM231500 01008KT P6SM SCT025
     FM231600 03008KT P6SM SCT035
     FM232300 05003KT P6SM SKC
      AMD NOT SKED=

USA.gov is the U.S. government's official web portal to all federal, state and local government web resources and services.